,,,PA_Meas_PMT16A,,PR_Meas_QMR101_102,,RH_Meas_QMH101,,SR_Meas_QMS101,,TA_Meas_QMH101,,GenWind,,GenWind,
date,time,status,PA,status,PR,status,RH,status,SR,status,TA,status,DirAvg,status,SpdAvg,
2012-05-05, 00:00:04,VALID,1008.77,VALID,0,VALID,104,VALID,0.112112,VALID,23.0705,VALID,111,VALID,0.165234,
2012-05-05, 00:01:04,VALID,1008.77,VALID,0,VALID,104,VALID,0,VALID,23.0493,VALID,111,VALID,0,
2012-05-05, 00:02:04,VALID,1008.78,VALID,0,VALID,104,VALID,0,VALID,23.0298,VALID,111,VALID,0.196484,
2012-05-05, 00:03:04,VALID,1008.72,VALID,0,VALID,104,VALID,0,VALID,23.0511,VALID,111,VALID,0,
2012-05-05, 00:04:04,VALID,1008.76,VALID,0,VALID,104,VALID,0.112112,VALID,23.0511,VALID,111,VALID,0,
2012-05-05, 00:05:04,VALID,1008.74,VALID,0,VALID,104,VALID,0,VALID,23.0316,VALID,111,VALID,0,
2012-05-05, 00:06:04,VALID,1008.72,VALID,0,VALID,104,VALID,0,VALID,23.0316,VALID,111,VALID,0,
2012-05-05, 00:07:04,VALID,1008.73,VALID,0,VALID,104,VALID,0,VALID,23.0511,VALID,111,VALID,0.485938,
2012-05-05, 00:08:04,VALID,1008.74,VALID,0,VALID,104,VALID,0.112112,VALID,23.0298,VALID,111,VALID,0.413281,
2012-05-05, 00:09:04,VALID,1008.74,VALID,0,VALID,104,VALID,0,VALID,23.0511,VALID,111,VALID,0.0210938,
2012-05-05, 00:10:04,VALID,1008.73,VALID,0,VALID,104,VALID,0,VALID,23.0511,VALID,111,VALID,0,
2012-05-05, 00:11:04,VALID,1008.78,VALID,0,VALID,104,VALID,0.112112,VALID,23.0316,VALID,111,VALID,0,
2012-05-05, 00:12:04,VALID,1008.75,VALID,0,VALID,104,VALID,0,VALID,23.0316,VALID,111,VALID,0,
2012-05-05, 00:13:04,VALID,1008.71,VALID,0,VALID,104,VALID,0,VALID,23.0316,VALID,111,VALID,0.342578,
2012-05-05, 00:14:04,VALID,1008.73,VALID,0,VALID,104,VALID,0,VALID,23.0121,VALID,111,VALID,0.358984,
2012-05-05, 00:15:04,VALID,1008.71,VALID,0,VALID,104,VALID,0,VALID,23.0298,VALID,106,VALID,0.646094,
2012-05-05, 00:16:04,VALID,1008.71,VALID,0,VALID,104,VALID,0,VALID,23.0511,VALID,106,VALID,0.30625,
2012-05-05, 00:17:04,VALID,1008.71,VALID,0,VALID,104,VALID,0.112112,VALID,23.0493,VALID,106,VALID,0.0140625,
2012-05-05, 00:18:04,VALID,1008.68,VALID,0,VALID,104,VALID,0,VALID,23.0511,VALID,106,VALID,0,
2012-05-05, 00:19:04,VALID,1008.67,VALID,0,VALID,104,VALID,0,VALID,23.0511,VALID,106,VALID,0,
2012-05-05, 00:20:04,VALID,1008.67,VALID,0,VALID,104,VALID,0,VALID,22.9909,VALID,106,VALID,0.201562,
2012-05-05, 00:21:04,VALID,1008.65,VALID,0,VALID,104,VALID,0,VALID,22.9926,VALID,106,VALID,0,
2012-05-05, 00:22:04,VALID,1008.64,VALID,0,VALID,104,VALID,0.112112,VALID,22.9536,VALID,106,VALID,0.33125,
2012-05-05, 00:23:04,VALID,1008.65,VALID,0,VALID,104,VALID,0,VALID,22.9342,VALID,106,VALID,0.390234,
2012-05-05, 00:24:04,VALID,1008.63,VALID,0,VALID,104,VALID,0,VALID,22.8935,VALID,106,VALID,0.270703,
2012-05-05, 00:25:04,VALID,1008.62,VALID,0,VALID,104,VALID,0,VALID,22.8757,VALID,106,VALID,0.260156,
2012-05-05, 00:26:04,VALID,1008.61,VALID,0,VALID,104,VALID,0,VALID,22.835,VALID,106,VALID,0.2125,
2012-05-05, 00:27:04,VALID,1008.63,VALID,0,VALID,104,VALID,0.112112,VALID,22.8368,VALID,106,VALID,0.189063,
2012-05-05, 00:28:04,VALID,1008.61,VALID,0,VALID,104,VALID,0,VALID,22.8173,VALID,106,VALID,0.0796875,
2012-05-05, 00:29:04,VALID,1008.63,VALID,0,VALID,104,VALID,0.112112,VALID,22.7961,VALID,106,VALID,0.134375,
2012-05-05, 00:30:04,VALID,1008.66,VALID,0,VALID,104,VALID,0,VALID,22.7978,VALID,106,VALID,0,
2012-05-05, 00:31:04,VALID,1008.64,VALID,0,VALID,104,VALID,0,VALID,22.7783,VALID,106,VALID,0.276563,
2012-05-05, 00:32:04,VALID,1008.63,VALID,0,VALID,104,VALID,0,VALID,22.7376,VALID,106,VALID,0.375781,
2012-05-05, 00:33:04,VALID,1008.67,VALID,0,VALID,104,VALID,0,VALID,22.7588,VALID,106,VALID,0.35,
2012-05-05, 00:34:04,VALID,1008.65,VALID,0,VALID,104,VALID,0,VALID,22.7588,VALID,106,VALID,0.363672,
2012-05-05, 00:35:04,VALID,1008.67,VALID,0,VALID,104,VALID,0,VALID,22.7783,VALID,106,VALID,0.408203,
2012-05-05, 00:36:04,VALID,1008.67,VALID,0,VALID,104,VALID,0,VALID,22.7571,VALID,106,VALID,0.495703,
2012-05-05, 00:37:04,VALID,1008.64,VALID,0,VALID,104,VALID,0,VALID,22.7783,VALID,106,VALID,0.40625,
2012-05-05, 00:38:04,VALID,1008.62,VALID,0,VALID,104,VALID,0,VALID,22.7978,VALID,106,VALID,0.264062,
2012-05-05, 00:39:04,VALID,1008.63,VALID,0,VALID,104,VALID,0,VALID,22.8173,VALID,106,VALID,0.284375,
2012-05-05, 00:40:04,VALID,1008.57,VALID,0,VALID,104,VALID,0,VALID,22.8368,VALID,106,VALID,0.163672,
2012-05-05, 00:41:04,VALID,1008.59,VALID,0,VALID,104,VALID,0,VALID,22.8173,VALID,106,VALID,0.00976563,
2012-05-05, 00:42:04,VALID,1008.58,VALID,0,VALID,104,VALID,0,VALID,22.7978,VALID,106,VALID,0,
2012-05-05, 00:43:04,VALID,1008.57,VALID,0,VALID,104,VALID,0,VALID,22.7783,VALID,106,VALID,0,
2012-05-05, 00:44:04,VALID,1008.57,VALID,0,VALID,104,VALID,0,VALID,22.7588,VALID,106,VALID,0,
2012-05-05, 00:45:04,VALID,1008.56,VALID,0,VALID,104,VALID,0,VALID,22.7182,VALID,106,VALID,0,
2012-05-05, 00:46:04,VALID,1008.57,VALID,0,VALID,104,VALID,0,VALID,22.7199,VALID,106,VALID,0,
2012-05-05, 00:47:04,VALID,1008.51,VALID,0,VALID,104,VALID,0,VALID,22.7394,VALID,106,VALID,0,
2012-05-05, 00:48:04,VALID,1008.54,VALID,0,VALID,104,VALID,0.112112,VALID,22.7394,VALID,106,VALID,0,
2012-05-05, 00:49:04,VALID,1008.49,VALID,0,VALID,104,VALID,0,VALID,22.7588,VALID,106,VALID,0,
2012-05-05, 00:50:04,VALID,1008.5,VALID,0,VALID,104,VALID,0,VALID,22.7588,VALID,106,VALID,0,
2012-05-05, 00:51:04,VALID,1008.43,VALID,0,VALID,104,VALID,0,VALID,22.7376,VALID,106,VALID,0,
2012-05-05, 00:52:04,VALID,1008.41,VALID,0,VALID,104,VALID,0,VALID,22.7588,VALID,106,VALID,0,
2012-05-05, 00:53:04,VALID,1008.39,VALID,0,VALID,104,VALID,0,VALID,22.7394,VALID,106,VALID,0,
2012-05-05, 00:54:04,VALID,1008.37,VALID,0,VALID,104,VALID,0,VALID,22.7394,VALID,106,VALID,0,
2012-05-05, 00:55:04,VALID,1008.39,VALID,0,VALID,104,VALID,0,VALID,22.7199,VALID,106,VALID,0,
2012-05-05, 00:56:04,VALID,1008.4,VALID,0,VALID,104,VALID,0,VALID,22.6597,VALID,106,VALID,0,
2012-05-05, 00:57:04,VALID,1008.42,VALID,0,VALID,104,VALID,0,VALID,22.6809,VALID,106,VALID,0,
2012-05-05, 00:58:04,VALID,1008.42,VALID,0,VALID,104,VALID,0,VALID,22.6402,VALID,106,VALID,0,
2012-05-05, 00:59:04,VALID,1008.41,VALID,0,VALID,104,VALID,0,VALID,22.6614,VALID,106,VALID,0,
2012-05-05, 01:00:04,VALID,1008.42,VALID,0,VALID,104,VALID,0,VALID,22.6614,VALID,106,VALID,0,
2012-05-05, 01:01:04,VALID,1008.41,VALID,0,VALID,104,VALID,0,VALID,22.6614,VALID,106,VALID,0,
2012-05-05, 01:02:04,VALID,1008.4,VALID,0,VALID,104,VALID,0,VALID,22.6809,VALID,106,VALID,0,
2012-05-05, 01:03:04,VALID,1008.37,VALID,0,VALID,104,VALID,0,VALID,22.7394,VALID,106,VALID,0.237109,
2012-05-05, 01:04:04,VALID,1008.37,VALID,0,VALID,104,VALID,0,VALID,22.8173,VALID,106,VALID,0.212891,
2012-05-05, 01:05:04,VALID,1008.34,VALID,0,VALID,104,VALID,0,VALID,22.8757,VALID,106,VALID,0.305859,
2012-05-05, 01:06:04,VALID,1008.31,VALID,0,VALID,104,VALID,0,VALID,22.8562,VALID,106,VALID,0.283594,
2012-05-05, 01:07:04,VALID,1008.29,VALID,0,VALID,104,VALID,0,VALID,22.8562,VALID,106,VALID,0.305078,
2012-05-05, 01:08:04,VALID,1008.3,VALID,0,VALID,104,VALID,0,VALID,22.8562,VALID,106,VALID,0.0015625,
2012-05-05, 01:09:04,VALID,1008.26,VALID,0,VALID,104,VALID,0,VALID,22.8562,VALID,106,VALID,0,
2012-05-05, 01:10:04,VALID,1008.26,VALID,0,VALID,104,VALID,0,VALID,22.8562,VALID,106,VALID,0,
2012-05-05, 01:11:04,VALID,1008.26,VALID,0,VALID,104,VALID,0,VALID,22.8155,VALID,106,VALID,0,
2012-05-05, 01:12:04,VALID,1008.28,VALID,0,VALID,104,VALID,0,VALID,22.8173,VALID,106,VALID,0,
2012-05-05, 01:13:04,VALID,1008.27,VALID,0,VALID,104,VALID,0,VALID,22.8173,VALID,106,VALID,0,
2012-05-05, 01:14:04,VALID,1008.26,VALID,0,VALID,104,VALID,0,VALID,22.7978,VALID,106,VALID,0.0175781,
2012-05-05, 01:15:04,VALID,1008.23,VALID,0,VALID,104,VALID,0,VALID,22.7978,VALID,106,VALID,0.205078,
2012-05-05, 01:16:04,VALID,1008.25,VALID,0,VALID,104,VALID,0,VALID,22.7783,VALID,106,VALID,0.194922,
2012-05-05, 01:17:04,VALID,1008.28,VALID,0,VALID,104,VALID,0,VALID,22.7182,VALID,106,VALID,0.0988281,
2012-05-05, 01:18:04,VALID,1008.28,VALID,0,VALID,104,VALID,0,VALID,22.7394,VALID,106,VALID,0.139062,
2012-05-05, 01:19:04,VALID,1008.3,VALID,0,VALID,104,VALID,0,VALID,22.7004,VALID,106,VALID,0.138281,
2012-05-05, 01:20:04,VALID,1008.3,VALID,0,VALID,104,VALID,0,VALID,22.7199,VALID,106,VALID,0,
2012-05-05, 01:21:04,VALID,1008.28,VALID,0,VALID,104,VALID,0,VALID,22.7004,VALID,106,VALID,0,
2012-05-05, 01:22:04,VALID,1008.24,VALID,0,VALID,104,VALID,0,VALID,22.7004,VALID,106,VALID,0,
2012-05-05, 01:23:04,VALID,1008.22,VALID,0,VALID,104,VALID,0,VALID,22.7004,VALID,106,VALID,0,
2012-05-05, 01:24:04,VALID,1008.21,VALID,0,VALID,104,VALID,0,VALID,22.7004,VALID,106,VALID,0,
2012-05-05, 01:25:04,VALID,1008.18,VALID,0,VALID,104,VALID,0,VALID,22.6809,VALID,106,VALID,0,
2012-05-05, 01:26:04,VALID,1008.16,VALID,0,VALID,104,VALID,0,VALID,22.642,VALID,106,VALID,0,
2012-05-05, 01:27:04,VALID,1008.13,VALID,0,VALID,104,VALID,0.112112,VALID,22.6013,VALID,106,VALID,0,
2012-05-05, 01:28:04,VALID,1008.14,VALID,0,VALID,104,VALID,0,VALID,22.6225,VALID,106,VALID,0,
2012-05-05, 01:29:04,VALID,1008.13,VALID,0,VALID,104,VALID,0,VALID,22.6225,VALID,106,VALID,0.3,
2012-05-05, 01:30:04,VALID,1008.13,VALID,0,VALID,104,VALID,0,VALID,22.6013,VALID,106,VALID,0.272656,
2012-05-05, 01:31:04,VALID,1008.16,VALID,0,VALID,104,VALID,0,VALID,22.6225,VALID,106,VALID,0.162891,
2012-05-05, 01:32:04,VALID,1008.2,VALID,0,VALID,104,VALID,0,VALID,22.642,VALID,106,VALID,0.193359,
2012-05-05, 01:33:04,VALID,1008.19,VALID,0,VALID,104,VALID,0,VALID,22.6225,VALID,106,VALID,0.295703,
2012-05-05, 01:34:04,VALID,1008.2,VALID,0,VALID,104,VALID,0,VALID,22.6225,VALID,106,VALID,0.306641,
2012-05-05, 01:35:04,VALID,1008.21,VALID,0,VALID,104,VALID,0,VALID,22.6225,VALID,106,VALID,0.226953,
2012-05-05, 01:36:04,VALID,1008.2,VALID,0,VALID,104,VALID,0,VALID,22.6225,VALID,106,VALID,0.21875,
2012-05-05, 01:37:04,VALID,1008.17,VALID,0,VALID,104,VALID,0,VALID,22.603,VALID,106,VALID,0.323438,
2012-05-05, 01:38:04,VALID,1008.19,VALID,0,VALID,104,VALID,0,VALID,22.5835,VALID,106,VALID,0.330469,
2012-05-05, 01:39:04,VALID,1008.15,VALID,0,VALID,104,VALID,0,VALID,22.5446,VALID,106,VALID,0.196875,
2012-05-05, 01:40:04,VALID,1008.14,VALID,0,VALID,104,VALID,0,VALID,22.5039,VALID,106,VALID,0.0832031,
2012-05-05, 01:41:04,VALID,1008.11,VALID,0,VALID,104,VALID,0,VALID,22.5251,VALID,106,VALID,0.126563,
2012-05-05, 01:42:04,VALID,1008.1,VALID,0,VALID,104,VALID,0,VALID,22.465,VALID,106,VALID,0.184375,
2012-05-05, 01:43:04,VALID,1008.08,VALID,0,VALID,104,VALID,0.112112,VALID,22.4667,VALID,106,VALID,0.114063,
2012-05-05, 01:44:04,VALID,1008.09,VALID,0,VALID,104,VALID,0,VALID,22.4472,VALID,106,VALID,0.133594,
2012-05-05, 01:45:04,VALID,1008.07,VALID,0,VALID,104,VALID,0.112112,VALID,22.426,VALID,106,VALID,0.164063,
2012-05-05, 01:46:04,VALID,1008.08,VALID,0,VALID,104,VALID,0,VALID,22.426,VALID,106,VALID,0,
2012-05-05, 01:47:04,VALID,1008.06,VALID,0,VALID,104,VALID,0,VALID,22.4277,VALID,106,VALID,0,
2012-05-05, 01:48:04,VALID,1008.04,VALID,0,VALID,104,VALID,0,VALID,22.4472,VALID,106,VALID,0,
2012-05-05, 01:49:04,VALID,1008.03,VALID,0,VALID,104,VALID,0,VALID,22.4472,VALID,106,VALID,0,
2012-05-05, 01:50:04,VALID,1008.01,VALID,0,VALID,104,VALID,0,VALID,22.4667,VALID,106,VALID,0,
2012-05-05, 01:51:04,VALID,1008.01,VALID,0,VALID,104,VALID,0,VALID,22.4667,VALID,106,VALID,0,
2012-05-05, 01:52:04,VALID,1007.97,VALID,0,VALID,104,VALID,0,VALID,22.4472,VALID,106,VALID,0.0386719,
2012-05-05, 01:53:04,VALID,1007.95,VALID,0,VALID,104,VALID,0,VALID,22.4489,VALID,106,VALID,0.0734375,
2012-05-05, 01:54:04,VALID,1007.93,VALID,0,VALID,104,VALID,0,VALID,22.4489,VALID,106,VALID,0.156641,
2012-05-05, 01:55:04,VALID,1007.9,VALID,0,VALID,104,VALID,0,VALID,22.4684,VALID,106,VALID,0.210938,
2012-05-05, 01:56:04,VALID,1007.9,VALID,0,VALID,104,VALID,0,VALID,22.4489,VALID,106,VALID,0.297266,
2012-05-05, 01:57:04,VALID,1007.92,VALID,0,VALID,104,VALID,0,VALID,22.4082,VALID,106,VALID,0,
2012-05-05, 01:58:04,VALID,1007.93,VALID,0,VALID,104,VALID,0,VALID,22.4294,VALID,106,VALID,0,
2012-05-05, 01:59:04,VALID,1007.93,VALID,0,VALID,104,VALID,0,VALID,22.4294,VALID,106,VALID,0,
2012-05-05, 02:00:04,VALID,1007.92,VALID,0,VALID,104,VALID,0,VALID,22.4294,VALID,106,VALID,0.330859,
2012-05-05, 02:01:04,VALID,1007.9,VALID,0,VALID,104,VALID,0,VALID,22.4099,VALID,106,VALID,0.434766,
2012-05-05, 02:02:04,VALID,1007.86,VALID,0,VALID,104,VALID,0,VALID,22.4099,VALID,106,VALID,0.430469,
2012-05-05, 02:03:04,VALID,1007.85,VALID,0,VALID,104,VALID,0,VALID,22.3887,VALID,106,VALID,0.260156,
2012-05-05, 02:04:04,VALID,1007.84,VALID,0,VALID,104,VALID,0,VALID,22.4099,VALID,106,VALID,0.346875,
2012-05-05, 02:05:04,VALID,1007.82,VALID,0,VALID,104,VALID,0,VALID,22.4082,VALID,106,VALID,0.435547,
2012-05-05, 02:06:04,VALID,1007.82,VALID,0,VALID,104,VALID,0,VALID,22.3887,VALID,96,VALID,0.49375,
2012-05-05, 02:07:04,VALID,1007.81,VALID,0,VALID,104,VALID,0,VALID,22.4099,VALID,96,VALID,0.325,
2012-05-05, 02:08:04,VALID,1007.8,VALID,0,VALID,104,VALID,0,VALID,22.4099,VALID,96,VALID,0.444922,
2012-05-05, 02:09:04,VALID,1007.77,VALID,0,VALID,104,VALID,0,VALID,22.4082,VALID,96,VALID,0.38125,
2012-05-05, 02:10:04,VALID,1007.77,VALID,0,VALID,104,VALID,0,VALID,22.4294,VALID,75,VALID,0.471484,
2012-05-05, 02:11:04,VALID,1007.77,VALID,0,VALID,104,VALID,0,VALID,22.4099,VALID,75,VALID,0.321875,
2012-05-05, 02:12:04,VALID,1007.76,VALID,0,VALID,104,VALID,0,VALID,22.4099,VALID,75,VALID,0.266797,
2012-05-05, 02:13:04,VALID,1007.75,VALID,0,VALID,104,VALID,0,VALID,22.3904,VALID,64,VALID,0.506641,
2012-05-05, 02:14:04,VALID,1007.79,VALID,0,VALID,104,VALID,0,VALID,22.4099,VALID,50,VALID,0.128516,
2012-05-05, 02:15:04,VALID,1007.76,VALID,0,VALID,104,VALID,0,VALID,22.3904,VALID,50,VALID,0.238672,
2012-05-05, 02:16:04,VALID,1007.73,VALID,0,VALID,104,VALID,0,VALID,22.3904,VALID,50,VALID,0.0835937,
2012-05-05, 02:17:04,VALID,1007.74,VALID,0,VALID,104,VALID,0,VALID,22.3904,VALID,50,VALID,0.263281,
2012-05-05, 02:18:04,VALID,1007.7,VALID,0,VALID,104,VALID,0,VALID,22.3904,VALID,50,VALID,0.319922,
2012-05-05, 02:19:04,VALID,1007.7,VALID,0,VALID,104,VALID,0,VALID,22.371,VALID,50,VALID,0.263281,
2012-05-05, 02:20:04,VALID,1007.68,VALID,0,VALID,104,VALID,0,VALID,22.371,VALID,50,VALID,0,
2012-05-05, 02:21:04,VALID,1007.65,VALID,0,VALID,104,VALID,0,VALID,22.3515,VALID,50,VALID,0,
2012-05-05, 02:22:04,VALID,1007.65,VALID,0,VALID,104,VALID,0,VALID,22.3498,VALID,50,VALID,0,
2012-05-05, 02:23:04,VALID,1007.66,VALID,0,VALID,104,VALID,0.112112,VALID,22.3498,VALID,50,VALID,0,
2012-05-05, 02:24:04,VALID,1007.65,VALID,0,VALID,104,VALID,0.112112,VALID,22.3286,VALID,50,VALID,0,
2012-05-05, 02:25:04,VALID,1007.66,VALID,0,VALID,104,VALID,0,VALID,22.3693,VALID,50,VALID,0,
2012-05-05, 02:26:04,VALID,1007.65,VALID,0,VALID,104,VALID,0.112112,VALID,22.3887,VALID,50,VALID,0,
2012-05-05, 02:27:04,VALID,1007.65,VALID,0,VALID,104,VALID,0.112112,VALID,22.3693,VALID,50,VALID,0,
2012-05-05, 02:28:04,VALID,1007.63,VALID,0,VALID,104,VALID,0.112112,VALID,22.3676,VALID,50,VALID,0,
2012-05-05, 02:29:04,VALID,1007.63,VALID,0,VALID,104,VALID,0,VALID,22.3693,VALID,50,VALID,0,
2012-05-05, 02:30:04,VALID,1007.61,VALID,0,VALID,104,VALID,0.112112,VALID,22.3693,VALID,50,VALID,0,
2012-05-05, 02:31:04,VALID,1007.61,VALID,0,VALID,104,VALID,0,VALID,22.3481,VALID,50,VALID,0,
2012-05-05, 02:32:04,VALID,1007.61,VALID,0,VALID,104,VALID,0.112112,VALID,22.3481,VALID,50,VALID,0,
2012-05-05, 02:33:04,VALID,1007.62,VALID,0,VALID,104,VALID,0.112112,VALID,22.3286,VALID,50,VALID,0,
2012-05-05, 02:34:04,VALID,1007.61,VALID,0,VALID,104,VALID,0.112112,VALID,22.3286,VALID,50,VALID,0,
2012-05-05, 02:35:04,VALID,1007.61,VALID,0,VALID,104,VALID,0.112112,VALID,22.3498,VALID,50,VALID,0,
2012-05-05, 02:36:04,VALID,1007.61,VALID,0,VALID,104,VALID,0.112112,VALID,22.3286,VALID,50,VALID,0,
2012-05-05, 02:37:04,VALID,1007.61,VALID,0,VALID,104,VALID,0,VALID,22.3286,VALID,50,VALID,0,
2012-05-05, 02:38:04,VALID,1007.6,VALID,0,VALID,104,VALID,0,VALID,22.3481,VALID,50,VALID,0,
2012-05-05, 02:39:04,VALID,1007.59,VALID,0,VALID,104,VALID,0.112112,VALID,22.3693,VALID,50,VALID,0,
2012-05-05, 02:40:04,VALID,1007.61,VALID,0,VALID,104,VALID,0.112112,VALID,22.3286,VALID,50,VALID,0,
2012-05-05, 02:41:04,VALID,1007.62,VALID,0,VALID,104,VALID,0.112112,VALID,22.3303,VALID,50,VALID,0,
2012-05-05, 02:42:04,VALID,1007.6,VALID,0,VALID,104,VALID,0,VALID,22.3091,VALID,50,VALID,0,
2012-05-05, 02:43:04,VALID,1007.61,VALID,0,VALID,104,VALID,0.112112,VALID,22.3091,VALID,50,VALID,0,
2012-05-05, 02:44:04,VALID,1007.6,VALID,0,VALID,104,VALID,0,VALID,22.3303,VALID,50,VALID,0,
2012-05-05, 02:45:04,VALID,1007.6,VALID,0,VALID,104,VALID,0.112112,VALID,22.3091,VALID,50,VALID,0,
2012-05-05, 02:46:04,VALID,1007.6,VALID,0,VALID,104,VALID,0.112112,VALID,22.3108,VALID,50,VALID,0,
2012-05-05, 02:47:04,VALID,1007.59,VALID,0,VALID,104,VALID,0,VALID,22.3091,VALID,50,VALID,0,
2012-05-05, 02:48:04,VALID,1007.61,VALID,0,VALID,104,VALID,0,VALID,22.2897,VALID,50,VALID,0,
2012-05-05, 02:49:04,VALID,1007.63,VALID,0,VALID,104,VALID,0.112112,VALID,22.2897,VALID,50,VALID,0,
2012-05-05, 02:50:04,VALID,1007.62,VALID,0,VALID,104,VALID,0.112112,VALID,22.2897,VALID,50,VALID,0,
2012-05-05, 02:51:04,VALID,1007.63,VALID,0,VALID,104,VALID,0.112112,VALID,22.2702,VALID,50,VALID,0,
2012-05-05, 02:52:04,VALID,1007.65,VALID,0,VALID,104,VALID,0,VALID,22.2719,VALID,50,VALID,0,
2012-05-05, 02:53:04,VALID,1007.66,VALID,0,VALID,104,VALID,0,VALID,22.2719,VALID,50,VALID,0,
2012-05-05, 02:54:04,VALID,1007.64,VALID,0,VALID,104,VALID,0,VALID,22.3125,VALID,50,VALID,0,
2012-05-05, 02:55:04,VALID,1007.61,VALID,0,VALID,104,VALID,0,VALID,22.332,VALID,50,VALID,0,
2012-05-05, 02:56:04,VALID,1007.62,VALID,0,VALID,104,VALID,0,VALID,22.2914,VALID,50,VALID,0,
2012-05-05, 02:57:04,VALID,1007.6,VALID,0,VALID,104,VALID,0,VALID,22.2719,VALID,50,VALID,0,
2012-05-05, 02:58:04,VALID,1007.61,VALID,0,VALID,104,VALID,0,VALID,22.3125,VALID,50,VALID,0,
2012-05-05, 02:59:04,VALID,1007.63,VALID,0,VALID,104,VALID,0,VALID,22.2914,VALID,50,VALID,0,
2012-05-05, 03:00:04,VALID,1007.63,VALID,0,VALID,104,VALID,0,VALID,22.293,VALID,50,VALID,0,
2012-05-05, 03:01:04,VALID,1007.65,VALID,0,VALID,104,VALID,0,VALID,22.293,VALID,50,VALID,0,
2012-05-05, 03:02:04,VALID,1007.66,VALID,0,VALID,104,VALID,0,VALID,22.332,VALID,50,VALID,0,
2012-05-05, 03:03:04,VALID,1007.64,VALID,0,VALID,104,VALID,0,VALID,22.332,VALID,50,VALID,0,
2012-05-05, 03:04:04,VALID,1007.68,VALID,0,VALID,104,VALID,0,VALID,22.3515,VALID,50,VALID,0,
2012-05-05, 03:05:04,VALID,1007.64,VALID,0,VALID,104,VALID,0,VALID,22.3108,VALID,50,VALID,0,
2012-05-05, 03:06:04,VALID,1007.65,VALID,0,VALID,104,VALID,0,VALID,22.3125,VALID,50,VALID,0,
2012-05-05, 03:07:04,VALID,1007.64,VALID,0,VALID,104,VALID,0.112112,VALID,22.3498,VALID,50,VALID,0,
2012-05-05, 03:08:04,VALID,1007.64,VALID,0,VALID,104,VALID,0,VALID,22.3286,VALID,50,VALID,0,
2012-05-05, 03:09:04,VALID,1007.64,VALID,0,VALID,104,VALID,0.112112,VALID,22.3693,VALID,50,VALID,0,
2012-05-05, 03:10:04,VALID,1007.64,VALID,0,VALID,104,VALID,0,VALID,22.3498,VALID,50,VALID,0.212891,
2012-05-05, 03:11:04,VALID,1007.66,VALID,0,VALID,104,VALID,0.112112,VALID,22.3498,VALID,50,VALID,0.364453,
2012-05-05, 03:12:04,VALID,1007.67,VALID,0,VALID,104,VALID,0.112112,VALID,22.3693,VALID,50,VALID,0.304297,
2012-05-05, 03:13:04,VALID,1007.68,VALID,0,VALID,104,VALID,0.112112,VALID,22.3481,VALID,50,VALID,0.348047,
2012-05-05, 03:14:04,VALID,1007.67,VALID,0,VALID,104,VALID,0,VALID,22.3481,VALID,50,VALID,0.273828,
2012-05-05, 03:15:04,VALID,1007.69,VALID,0,VALID,104,VALID,0,VALID,22.3693,VALID,50,VALID,0.326953,
2012-05-05, 03:16:04,VALID,1007.68,VALID,0,VALID,104,VALID,0,VALID,22.3676,VALID,50,VALID,0.457031,
2012-05-05, 03:17:04,VALID,1007.64,VALID,0,VALID,104,VALID,0.112112,VALID,22.3676,VALID,50,VALID,0.548437,
2012-05-05, 03:18:04,VALID,1007.64,VALID,0,VALID,104,VALID,0,VALID,22.3693,VALID,68,VALID,0.908984,
2012-05-05, 03:19:04,VALID,1007.62,VALID,0,VALID,104,VALID,0.112112,VALID,22.3676,VALID,66,VALID,1.0207,
2012-05-05, 03:20:04,VALID,1007.63,VALID,0,VALID,104,VALID,0.112112,VALID,22.3676,VALID,54,VALID,0.596094,
2012-05-05, 03:21:04,VALID,1007.59,VALID,0,VALID,104,VALID,0,VALID,22.3887,VALID,82,VALID,0.644531,
2012-05-05, 03:22:04,VALID,1007.58,VALID,0,VALID,104,VALID,0,VALID,22.3904,VALID,82,VALID,0.593359,
2012-05-05, 03:23:04,VALID,1007.59,VALID,0,VALID,104,VALID,0,VALID,22.3693,VALID,67,VALID,0.519141,
2012-05-05, 03:24:04,VALID,1007.57,VALID,0,VALID,104,VALID,0,VALID,22.3904,VALID,67,VALID,0.473047,
2012-05-05, 03:25:04,VALID,1007.59,VALID,0,VALID,104,VALID,0,VALID,22.3693,VALID,69,VALID,0.472656,
2012-05-05, 03:26:04,VALID,1007.59,VALID,0,VALID,104,VALID,0,VALID,22.3693,VALID,64,VALID,0.450781,
2012-05-05, 03:27:04,VALID,1007.57,VALID,0,VALID,104,VALID,0,VALID,22.371,VALID,63,VALID,0.275,
2012-05-05, 03:28:04,VALID,1007.57,VALID,0,VALID,104,VALID,0,VALID,22.3515,VALID,63,VALID,0.39375,
2012-05-05, 03:29:04,VALID,1007.58,VALID,0,VALID,104,VALID,0,VALID,22.3515,VALID,63,VALID,0.248828,
2012-05-05, 03:30:04,VALID,1007.59,VALID,0,VALID,104,VALID,0,VALID,22.3515,VALID,63,VALID,0.353906,
2012-05-05, 03:31:04,VALID,1007.59,VALID,0,VALID,104,VALID,0,VALID,22.3515,VALID,63,VALID,0.0121094,
2012-05-05, 03:32:04,VALID,1007.56,VALID,0,VALID,104,VALID,0,VALID,22.3303,VALID,63,VALID,0,
2012-05-05, 03:33:04,VALID,1007.55,VALID,0,VALID,104,VALID,0,VALID,22.3108,VALID,63,VALID,0.133203,
2012-05-05, 03:34:04,VALID,1007.52,VALID,0,VALID,104,VALID,0,VALID,22.332,VALID,63,VALID,0.128906,
2012-05-05, 03:35:04,VALID,1007.48,VALID,0,VALID,104,VALID,0,VALID,22.3108,VALID,63,VALID,0.407813,
2012-05-05, 03:36:04,VALID,1007.47,VALID,0,VALID,104,VALID,0,VALID,22.332,VALID,63,VALID,0.053125,
2012-05-05, 03:37:04,VALID,1007.45,VALID,0,VALID,104,VALID,0.112112,VALID,22.3108,VALID,63,VALID,0,
2012-05-05, 03:38:04,VALID,1007.42,VALID,0,VALID,104,VALID,0,VALID,22.2914,VALID,63,VALID,0.199609,
2012-05-05, 03:39:04,VALID,1007.42,VALID,0,VALID,104,VALID,0.112112,VALID,22.3108,VALID,63,VALID,0.317187,
2012-05-05, 03:40:04,VALID,1007.43,VALID,0,VALID,104,VALID,0.112112,VALID,22.2914,VALID,63,VALID,0.251953,
2012-05-05, 03:41:04,VALID,1007.43,VALID,0,VALID,104,VALID,0.112112,VALID,22.2897,VALID,63,VALID,0.174609,
2012-05-05, 03:42:04,VALID,1007.45,VALID,0,VALID,104,VALID,0,VALID,22.3108,VALID,63,VALID,0.00195313,
2012-05-05, 03:43:04,VALID,1007.45,VALID,0,VALID,104,VALID,0,VALID,22.2914,VALID,63,VALID,0.0917969,
2012-05-05, 03:44:04,VALID,1007.48,VALID,0,VALID,104,VALID,0.112112,VALID,22.2897,VALID,63,VALID,0.153906,
2012-05-05, 03:45:04,VALID,1007.45,VALID,0,VALID,104,VALID,0,VALID,22.2897,VALID,63,VALID,0.289844,
2012-05-05, 03:46:04,VALID,1007.44,VALID,0,VALID,104,VALID,0,VALID,22.2897,VALID,64,VALID,0.579687,
2012-05-05, 03:47:04,VALID,1007.43,VALID,0,VALID,104,VALID,0.112112,VALID,22.2914,VALID,64,VALID,0.4125,
2012-05-05, 03:48:04,VALID,1007.43,VALID,0,VALID,104,VALID,0,VALID,22.2507,VALID,64,VALID,0.432031,
2012-05-05, 03:49:04,VALID,1007.42,VALID,0,VALID,104,VALID,0,VALID,22.2524,VALID,64,VALID,0.216797,
2012-05-05, 03:50:04,VALID,1007.42,VALID,0,VALID,104,VALID,0,VALID,22.2507,VALID,58,VALID,0.44375,
2012-05-05, 03:51:04,VALID,1007.41,VALID,0,VALID,104,VALID,0.112112,VALID,22.2312,VALID,58,VALID,0.181641,
2012-05-05, 03:52:04,VALID,1007.41,VALID,0,VALID,104,VALID,0,VALID,22.2118,VALID,58,VALID,0.153125,
2012-05-05, 03:53:04,VALID,1007.43,VALID,0,VALID,104,VALID,0,VALID,22.2329,VALID,58,VALID,0.161328,
2012-05-05, 03:54:04,VALID,1007.43,VALID,0,VALID,104,VALID,0.112112,VALID,22.1923,VALID,58,VALID,0.307422,
2012-05-05, 03:55:04,VALID,1007.41,VALID,0,VALID,104,VALID,0.112112,VALID,22.1923,VALID,58,VALID,0.289063,
2012-05-05, 03:56:04,VALID,1007.41,VALID,0,VALID,104,VALID,0,VALID,22.1923,VALID,58,VALID,0.397656,
2012-05-05, 03:57:04,VALID,1007.44,VALID,0,VALID,104,VALID,0,VALID,22.2134,VALID,58,VALID,0.241406,